Location: Sevilla
(37.3933°N, 5.9839°W)
Time: 13:29:33
(UTC+02:00)

S-56A Canister/Altair - Pass Details

Date: 28 June 2024
Orbit: 638 x 2488 km, 38.9° (Epoch: 14 July)

Event Time Altitude Azimuth Distance (km) Brightness Sun altitude
Rises 21:59:42 0° 253° (WSW) 3,543 11.6 -2.7°
Reaches altitude 10° 22:01:52 10° 253° (WSW) 2,773 11.0 -3.0°
Maximum altitude 22:08:40 86° 166° (SSE) 1,328 8.7 -4.2°
Drops below altitude 10° 22:19:17 10° 78° (ENE) 4,194 10.9 -5.9°
Sets 22:23:19 0° 78° (ENE) 5,462 11.5 -6.6°
